This is the latest recevied weather packets stored in our database for station/object KE5QKR. If no packets are shown the sender has not sent any weather packets the latest 10 day(s).
| Time | Temp. | Humidity | Pressure | Rain* | Wind** | Luminosity | Snow |
|---|---|---|---|---|---|---|---|
| 1777824807 | 21.67° C | 47% | 1021 hPa | 0 mm | - | 791 W/m² | - |
| 1777824504 | 21.67° C | 41% | 1020.9 hPa | 0 mm | - | 786 W/m² | - |
| 1777824200 | 21.67° C | 44% | 1021.4 hPa | 0 mm | - | 776 W/m² | - |
| 1777823896 | 21.67° C | 47% | 1021 hPa | 0 mm | - | 762 W/m² | - |
| 1777823594 | 21.67° C | 43% | 1020.9 hPa | 0 mm | - | 751 W/m² | - |
| 1777823290 | 21.67° C | 44% | 1021.1 hPa | 0 mm | - | 741 W/m² | - |
| 1777822988 | 21.67° C | 43% | 1021.3 hPa | 0 mm | - | 730 W/m² | - |
| 1777822686 | 21.11° C | 45% | 1021.2 hPa | 0 mm | - | 719 W/m² | - |
| 1777822384 | 21.11° C | 49% | 1021.1 hPa | 0 mm | - | 705 W/m² | - |
| 1777822081 | 21.67° C | 46% | 1021 hPa | 0 mm | - | 693 W/m² | - |
| 1777821779 | 21.11° C | 46% | 1021.1 hPa | 0 mm | - | 681 W/m² | - |
| 1777821475 | 21.67° C | 46% | 1021.1 hPa | 0 mm | - | 669 W/m² | - |
| 1777821173 | 21.11° C | 47% | 1021.3 hPa | 0 mm | - | 651 W/m² | - |
| 1777820870 | 22.22° C | 44% | 1020.8 hPa | 0 mm | - | 641 W/m² | - |
| 1777820566 | 21.11° C | 43% | 1021.1 hPa | 0 mm | - | 628 W/m² | - |
| 1777820263 | 21.11° C | 46% | 1021 hPa | 0 mm | - | 615 W/m² | - |
| 1777819960 | 21.11° C | 46% | 1020.8 hPa | 0 mm | - | 600 W/m² | - |
| 1777819657 | 20.56° C | 46% | 1021.1 hPa | 0 mm | - | 584 W/m² | - |
| 1777819356 | 21.11° C | 54% | 1021.2 hPa | 0 mm | - | 570 W/m² | - |
| 1777819052 | 21.11° C | 45% | 1021.4 hPa | 0 mm | - | 555 W/m² | - |
| 1777818749 | 21.11° C | 47% | 1021.1 hPa | 0 mm | - | 538 W/m² | - |
| 1777818446 | 20.56° C | 46% | 1021.2 hPa | 0 mm | - | 523 W/m² | - |
| 1777818143 | 20.56° C | 47% | 1020.9 hPa | 0 mm | - | 507 W/m² | - |
| 1777817839 | 20° C | 54% | 1020.7 hPa | 0 mm | - | 487 W/m² | - |
| 1777817537 | 20° C | 56% | 1021 hPa | 0 mm | - | 470 W/m² | - |
* Rain latest hour (hover to see other rain measurements)
** Current wind speed in m/s (hover to see current wind gust speed)